Weather History for Hazen, ND

Change the Weather History Date:

Thursday, January 10, 2013

  Actual Average (KN60) Record (KN60)
Temperature  
Mean Temperature 30 °F -  
Max Temperature 35 °F 15 °F - (-1)
Min Temperature 24 °F 0 °F - (-1)
Degree Days  
Heating Degree Days 36    
Moisture  
Dew Point 26 °F    
Average Humidity 79    
Maximum Humidity 93    
Minimum Humidity 70    
Precipitation  
Precipitation 0.00 in - - ()
Sea Level Pressure  
Sea Level Pressure 29.57 in    
Wind  
Wind Speed 5 mph (ESE)    
Max Wind Speed 17 mph    
Max Gust Speed 24 mph    
Visibility 10 miles    
Events      
Averages and records for this station are not official NWS values.
T = Trace of Precipitation, MM = Missing Value Source: NWS Daily Summary

Daily Weather History Graph

Daily Weather History Graph

Search for Another Location

Airport:

Trip Planner

Search our weather history database for the weather conditions in past years. The results will help you decide how hot, cold, wet, or windy it might be!

Date:

Astronomy

Jan. 10, 2013 Rise Set
Actual Time 8:31 AM CST 5:17 PM CST
Civil Twilight 7:56 AM CST 5:52 PM CST
Nautical Twilight 7:17 AM CST 6:30 PM CST
Astronomical Twilight 6:41 AM CST 7:07 PM CST
Moon 7:12 AM CST (1/10) 4:28 PM CST (1/10)
Length of Visible Light 9h 55m
Length of Day
8h 45m
Waning Crescent, 2% of the Moon is Illuminated
Jan 10
Waning Crescent
Jan 11
New
Jan 18
First Quarter
Jan 26
Full
Feb 3
Last Quarter

Hourly Weather History & Observations

Time (CST) Temp. Windchill Dew Point Humidity Pressure Visibility Wind Dir Wind Speed Gust Speed Precip Events Conditions
12:15 AM 32.0 °F 28.7 °F 26.6 °F 80% 29.78 in 10.0 mi South 3.5 mph - N/A   Clear
12:35 AM 32.0 °F 26.4 °F 26.6 °F 80% 29.76 in 10.0 mi SSE 5.8 mph - N/A   Clear
12:55 AM 32.0 °F 24.8 °F 26.6 °F 80% 29.75 in 10.0 mi SE 8.1 mph - N/A   Clear
2:35 AM 32.0 °F 28.7 °F 24.8 °F 75% 29.72 in 10.0 mi West 3.5 mph - N/A   Scattered Clouds
2:55 AM 28.4 °F - 24.8 °F 86% 29.72 in 10.0 mi Calm Calm - N/A   Clear
3:15 AM 28.4 °F 22.2 °F 23.0 °F 80% 29.71 in 10.0 mi West 5.8 mph - N/A   Clear
3:35 AM 30.2 °F 24.3 °F 24.8 °F 80% 29.70 in 10.0 mi WSW 5.8 mph - N/A   Clear
3:55 AM 26.6 °F - 23.0 °F 86% 29.69 in 10.0 mi Calm Calm - N/A   Clear
4:15 AM 32.0 °F 23.0 °F 24.8 °F 75% 29.67 in 10.0 mi SSW 11.5 mph - N/A   Clear
4:35 AM 28.4 °F 22.2 °F 23.0 °F 80% 29.67 in 10.0 mi North 5.8 mph - N/A   Clear
4:55 AM 26.6 °F 21.2 °F 23.0 °F 86% 29.67 in 10.0 mi ENE 4.6 mph - N/A   Clear
5:15 AM 28.4 °F 23.3 °F 24.8 °F 86% 29.66 in 10.0 mi ESE 4.6 mph - N/A   Clear
5:35 AM 26.6 °F 22.6 °F 23.0 °F 86% 29.65 in 10.0 mi SW 3.5 mph - N/A   Clear
5:55 AM 26.6 °F - 23.0 °F 86% 29.65 in 10.0 mi Calm Calm - N/A   Clear
6:35 AM 24.8 °F - 19.4 °F 80% 29.63 in 10.0 mi Calm Calm - N/A   Clear
6:55 AM 30.2 °F 25.4 °F 24.8 °F 80% 29.64 in 10.0 mi SSW 4.6 mph - N/A   Clear
7:15 AM 30.2 °F 20.2 °F 24.8 °F 80% 29.63 in 10.0 mi South 12.7 mph - N/A   Clear
7:35 AM 32.0 °F 21.6 °F 24.8 °F 75% 29.63 in 10.0 mi South 15.0 mph - N/A   Clear
7:55 AM 32.0 °F 27.5 °F 24.8 °F 75% 29.63 in 10.0 mi SSW 4.6 mph - N/A   Clear
8:15 AM 32.0 °F 23.6 °F 24.8 °F 75% 29.63 in 10.0 mi South 10.4 mph - N/A   Clear
8:35 AM 33.8 °F 24.8 °F 24.8 °F 70% 29.62 in 10.0 mi South 12.7 mph - N/A   Clear
8:55 AM 32.0 °F 28.7 °F 24.8 °F 75% 29.61 in 10.0 mi NNW 3.5 mph - N/A   Clear
9:15 AM 32.0 °F 24.8 °F 24.8 °F 75% 29.62 in 10.0 mi South 8.1 mph - N/A   Clear
9:35 AM 32.0 °F 26.4 °F 24.8 °F 75% 29.60 in 10.0 mi South 5.8 mph - N/A   Clear
9:55 AM 32.0 °F 28.7 °F 24.8 °F 75% 29.60 in 10.0 mi SSE 3.5 mph - N/A   Clear
10:15 AM 32.0 °F - 24.8 °F 75% 29.60 in 10.0 mi Calm Calm - N/A   Clear
10:35 AM 32.0 °F 28.7 °F 26.6 °F 80% 29.60 in 10.0 mi SSW 3.5 mph - N/A   Clear
10:55 AM 33.8 °F 28.6 °F 26.6 °F 75% 29.60 in 10.0 mi SW 5.8 mph - N/A   Clear
11:15 AM 35.6 °F 28.6 °F 26.6 °F 70% 29.59 in 10.0 mi South 9.2 mph - N/A   Clear
11:35 AM 35.6 °F 27.5 °F 26.6 °F 70% 29.58 in 10.0 mi SSE 11.5 mph - N/A   Clear
11:55 AM 35.6 °F - 26.6 °F 70% 29.57 in 10.0 mi Calm Calm - N/A   Clear
12:15 PM 35.6 °F 32.8 °F 26.6 °F 70% 29.57 in 10.0 mi NW 3.5 mph - N/A   Clear
12:35 PM 35.6 °F - 26.6 °F 70% 29.56 in 10.0 mi Calm Calm - N/A   Clear
12:55 PM 35.6 °F 31.7 °F 26.6 °F 70% 29.54 in 10.0 mi South 4.6 mph - N/A   Clear
1:15 PM 35.6 °F 32.8 °F 26.6 °F 70% 29.53 in 10.0 mi East 3.5 mph - N/A   Clear
1:35 PM 35.6 °F - 26.6 °F 70% 29.52 in 10.0 mi Calm Calm - N/A   Clear
1:55 PM 35.6 °F - 26.6 °F 70% 29.52 in 10.0 mi Calm Calm - N/A   Clear
2:15 PM 35.6 °F 30.7 °F 26.6 °F 70% 29.50 in 10.0 mi East 5.8 mph - N/A   Clear
2:35 PM 35.6 °F 32.8 °F 28.4 °F 75% 29.51 in 10.0 mi ESE 3.5 mph - N/A   Clear
2:55 PM 35.6 °F 31.7 °F 28.4 °F 75% 29.51 in 10.0 mi NE 4.6 mph - N/A   Clear
3:15 PM 33.8 °F 26.4 °F 28.4 °F 81% 29.50 in 10.0 mi East 9.2 mph - N/A   Clear
3:35 PM 33.8 °F 27.7 °F 28.4 °F 81% 29.51 in 10.0 mi ESE 6.9 mph - N/A   Clear
3:55 PM 35.6 °F 31.7 °F 28.4 °F 75% 29.51 in 10.0 mi SE 4.6 mph - N/A   Clear
4:15 PM 33.8 °F 30.8 °F 26.6 °F 75% 29.50 in 10.0 mi NE 3.5 mph - N/A   Clear
4:35 PM 32.0 °F 27.5 °F 26.6 °F 80% 29.50 in 10.0 mi NE 4.6 mph - N/A   Clear
4:55 PM 32.0 °F 27.5 °F 26.6 °F 80% 29.49 in 10.0 mi ENE 4.6 mph - N/A   Clear
5:15 PM 32.0 °F 28.7 °F 26.6 °F 80% 29.49 in 10.0 mi ESE 3.5 mph - N/A   Clear
5:35 PM 32.0 °F 27.5 °F 26.6 °F 80% 29.48 in 10.0 mi SE 4.6 mph - N/A   Clear
5:55 PM 32.0 °F 28.7 °F 26.6 °F 80% 29.47 in 10.0 mi East 3.5 mph - N/A   Clear
6:15 PM 32.0 °F 27.5 °F 26.6 °F 80% 29.47 in 10.0 mi East 4.6 mph - N/A   Partly Cloudy
6:35 PM 32.0 °F - 26.6 °F 80% 29.46 in 10.0 mi Calm Calm - N/A   Scattered Clouds
6:55 PM 32.0 °F 28.7 °F 26.6 °F 80% 29.46 in 10.0 mi NNE 3.5 mph - N/A   Scattered Clouds
7:15 PM 32.0 °F - 26.6 °F 80% 29.46 in 10.0 mi Calm Calm - N/A   Scattered Clouds
7:35 PM 32.0 °F 28.7 °F 26.6 °F 80% 29.45 in 10.0 mi NE 3.5 mph - N/A   Scattered Clouds
7:55 PM 32.0 °F - 26.6 °F 80% 29.45 in 10.0 mi Calm Calm - N/A   Partly Cloudy
8:15 PM 30.2 °F 26.7 °F 26.6 °F 86% 29.46 in 10.0 mi North 3.5 mph - N/A   Clear
8:55 PM 30.2 °F 21.3 °F 26.6 °F 86% 29.46 in 10.0 mi NNE 10.4 mph - N/A   Scattered Clouds
9:15 PM 28.4 °F 20.4 °F 26.6 °F 93% 29.46 in 10.0 mi NNE 8.1 mph - N/A   Mostly Cloudy
9:35 PM 28.4 °F 19.1 °F 24.8 °F 86% 29.47 in 10.0 mi NNE 10.4 mph - N/A   Mostly Cloudy
9:55 PM 26.6 °F 16.8 °F 24.8 °F 93% 29.47 in 10.0 mi NNE 10.4 mph - N/A   Mostly Cloudy
10:15 PM 26.6 °F 15.2 °F 24.8 °F 93% 29.47 in 9.0 mi NNE 13.8 mph 19.6 mph N/A   Overcast
10:35 PM 26.6 °F 16.8 °F 24.8 °F 93% 29.48 in 10.0 mi NNE 10.4 mph - N/A   Overcast
11:15 PM 24.8 °F 11.5 °F 23.0 °F 93% 29.50 in 10.0 mi NNE 17.3 mph 24.2 mph N/A   Overcast
11:35 PM 24.8 °F 11.9 °F 23.0 °F 93% 29.50 in 10.0 mi NE 16.1 mph 23.0 mph N/A   Overcast
11:55 PM 24.8 °F 12.9 °F 23.0 °F 93% 29.50 in 10.0 mi NNE 13.8 mph 21.9 mph N/A   Overcast